DELTA 1 R/B, 2436

Orbit data source: Space-Track

DELTA 1 R/B, 2436 is space debris in SSO originally from a launch on Sun, 02 Oct 1966 UTC launched from the Air Force Western Test Range (AFWTR). Debris objects in space refer to the collection of defunct objects orbiting the Earth. Examples of debris include non-operational satellites, rocket bodies, and fragments generated from explosions, collisions, or faulty payload assembly.

Loading next visibility...
Identifier
2436, 1966-087B
Orbit
SSO
Country
Flag of USUS
Related business
Manufacturer
ABL
Mission
Spacecraft
Bus & Motor
ALTAIR, Unknown motor
Mass
33 kg wet, 33 kg dry
Launch date (UTC)
1966-10-02 (59 years ago)
Launch vehicle
Unknown
Launch site
Air Force Western Test Range (AFWTR)
Object type
Payload
Rocket body
Debris
Shape & HBR
Unknown
Radar Cross Section
Medium (>0.1 m² and <1 m²)

Expand to show TLE details & history
Last TLE update: 13 hours ago

TLE from 13 hours ago
0 DELTA 1 R/B
1 02436U 66087B   25310.19341264 -.00000006  00000-0  20429-3 0  9990
2 02436 101.0111 272.4454 0065553 114.3504 246.4435 12.57666427712073
Epoch: 2025-11-06T04:38Z
TLE epoch observation values (Epoch: 2025-11-06T04:38:30.852Z)
Latitude
0.00001°
Longitude
157.16161°
Altitude
1,455.95 km
Speed
7.125 km/s
True Right ascension
18h 09m 46s
True Declination
0° 00' 00"
Sunlit
Object was in daylight at epoch
Visualization orbit readout
Latitude
Unknown
Longitude
Unknown
Altitude
Unknown
Speed
Unknown
Apparent Right ascension
Unknown
Apparent Declination
Unknown
Sunlit
N/A
Visualization observer readout
Local Sidereal Time
14:09:33
Azimuth
Unknown
Elevation
Unknown
Doppler factor
Unknown
Orbital elements
Apogee altitude
1,481.271 km
Perigee altitude
1,378.901 km
Semi-major axis
7,808.223 km
Eccentricity
0.00656
Inclination
101.0111°
RAAN
272.4454°
Arg. of periapsis
114.3504°
True anomaly
245.75718°
Mean anomaly
246.4435°
Eccentric anomaly
246.10011°
Mean motion
3.14568 °/min
Orbital period
114.44 mins
BSTAR
0.00020429
Loading maneuver chart data...
Computing Atmospheric mass density...
Loading historical data...
Loading historical data...
Loading historical data...
Loading historical data...
Loading historical data...
Loading historical data...
Loading historical data...
Other satellites on launch #87 in the year 1966 (1966-10-02 UTC)

Documentation

Showing up to 5 results
|